�N����,����,�g�[���i�䏊�j���x,�g�[�����x,��g�[���i���ցj���x,����
 2003/09/01, 0:00,30.6,47,29,28.4
 2003/09/01, 0:15,30.8,47,29,28.4
 2003/09/01, 0:30,30.8,47,29,28.4
 2003/09/01, 0:45,30.9,47,28.9,28.2
 2003/09/01, 1:00,31,48,28.9,28.3
 2003/09/01, 1:15,31,49,28.8,28.3
 2003/09/01, 1:30,31.1,49,28.8,28.3
 2003/09/01, 1:45,31.1,49,28.8,28.3
 2003/09/01, 2:00,31.2,49,28.7,28.3
 2003/09/01, 2:15,31.1,49,28.7,28.4
 2003/09/01, 2:30,31,49,28.6,28.4
 2003/09/01, 2:45,31,49,28.7,28.4
 2003/09/01, 3:00,31.1,49,28.6,28.4
 2003/09/01, 3:15,31,50,28.6,28.4
 2003/09/01, 3:30,31,50,28.6,28.4
 2003/09/01, 3:45,31,50,28.6,28.4
 2003/09/01, 4:00,31,50,28.6,28.5
 2003/09/01, 4:15,31.1,50,28.5,28.5
 2003/09/01, 4:30,31.1,50,28.5,28.5
 2003/09/01, 4:45,31,50,28.5,28.5
 2003/09/01, 5:00,31,50,28.5,28.5
 2003/09/01, 5:15,31,50,28.6,28.5
 2003/09/01, 5:30,31,50,28.6,28.5
 2003/09/01, 5:45,31,50,28.6,28.6
 2003/09/01, 6:00,31,51,28.6,28.3
 2003/09/01, 6:15,31,52,28.6,28.3
 2003/09/01, 6:30,31.1,54,28.7,28.2
 2003/09/01, 6:45,31.2,55,28.7,28.2
 2003/09/01, 7:00,31.1,53,28.8,28.2
 2003/09/01, 7:15,31.2,53,28.9,28.2
 2003/09/01, 7:30,31.3,53,29.1,28.2
 2003/09/01, 7:45,31.5,53,29.3,28.2
 2003/09/01, 8:00,31.7,52,29.4,28.2
 2003/09/01, 8:15,31.9,54,29.6,28.2
 2003/09/01, 8:30,32.1,54,29.8,28.2
 2003/09/01, 8:45,32,53,30.1,28.2
 2003/09/01, 9:00,32.2,53,30.3,28.2
 2003/09/01, 9:15,32.3,52,30.6,28.2
 2003/09/01, 9:30,32.4,52,30.8,28.2
 2003/09/01, 9:45,32.6,52,31.1,28.3
 2003/09/01,10:00,32.7,52,31.3,28.3
 2003/09/01,10:15,32.8,51,31.5,28.3
 2003/09/01,10:30,32.7,49,31.6,28.3
 2003/09/01,10:45,32.1,40,31.6,28.4
 2003/09/01,11:00,31.8,39,31.9,28.4
 2003/09/01,11:15,31.5,36,32.5,28.4
 2003/09/01,11:30,31.3,34,33.2,28.4
 2003/09/01,11:45,31,33,33.2,28.4
 2003/09/01,12:00,30.9,33,32.8,28.5
 2003/09/01,12:15,30.6,33,32.6,28.5
 2003/09/01,12:30,30.3,33,32.5,28.5
 2003/09/01,12:45,30.3,33,32.4,28.2
 2003/09/01,13:00,30.1,32,32.2,28.3
 2003/09/01,13:15,30.7,37,32,28.3
 2003/09/01,13:30,31.1,39,32,28.3
 2003/09/01,13:45,31.2,41,31.9,28.4
 2003/09/01,14:00,31.5,42,32,28.4
 2003/09/01,14:15,31.8,43,31.9,28.4
 2003/09/01,14:30,32.1,43,32,28.4
 2003/09/01,14:45,32.4,44,32,28.5
 2003/09/01,15:00,32.6,44,32.1,28.5
 2003/09/01,15:15,32.7,43,32.2,28.5
 2003/09/01,15:30,32,37,32.2,28.6
 2003/09/01,15:45,31.6,33,32.2,28.6
 2003/09/01,16:00,31.4,31,32.2,28.5
 2003/09/01,16:15,31.4,33,31.5,28.5
 2003/09/01,16:30,31.1,30,31.9,28.5
 2003/09/01,16:45,30.8,28,31.9,28.5
 2003/09/01,17:00,30.4,27,32,28.6
 2003/09/01,17:15,30.2,26,32,28.5
 2003/09/01,17:30,30.1,27,31.7,28.5
 2003/09/01,17:45,30.1,29,31.8,28.5
 2003/09/01,18:00,30.2,33,31.8,28.6
 2003/09/01,18:15,30.1,30,31.5,28.6
 2003/09/01,18:30,29.7,28,31.3,28.6
 2003/09/01,18:45,29.3,27,31.1,28.7
 2003/09/01,19:00,29.2,27,31,28.5
 2003/09/01,19:15,29.5,34,30.8,28.6
 2003/09/01,19:30,29.7,39,30.6,28.4
 2003/09/01,19:45,29.7,41,30.5,28.4
 2003/09/01,20:00,29.8,46,30.5,28.3
 2003/09/01,20:15,29.7,44,30.4,28.4
 2003/09/01,20:30,29.5,39,30.2,28.4
 2003/09/01,20:45,29.4,39,29.9,28.4
 2003/09/01,21:00,29.4,39,29.7,28.4
 2003/09/01,21:15,29.1,40,29.8,28.4
 2003/09/01,21:30,28.8,37,29.8,28.5
 2003/09/01,21:45,29.2,41,29.6,28.4
 2003/09/01,22:00,29.4,47,29.6,28.4
 2003/09/01,22:15,29.5,49,29.5,28.4
 2003/09/01,22:30,29.4,49,29.5,28.4
 2003/09/01,22:45,29.5,49,29.5,28.4
 2003/09/01,23:00,29.8,49,29.3,28.5
 2003/09/01,23:15,29.9,52,29.2,28.5
 2003/09/01,23:30,30,52,29.1,28.5
 2003/09/01,23:45,30.1,51,29,28.5
 2003/09/02, 0:00,30.2,51,28.8,28.5
 2003/09/02, 0:15,30.1,51,28.6,28.5
 2003/09/02, 0:30,30.2,51,28.5,28.5
 2003/09/02, 0:45,30.3,50,28.5,28.5
 2003/09/02, 1:00,30.2,50,28.4,28.5
 2003/09/02, 1:15,30.2,50,28.4,28.6
 2003/09/02, 1:30,30.2,50,28.3,28.6
 2003/09/02, 1:45,30.2,50,28.2,28.6
 2003/09/02, 2:00,30.1,50,28.1,28.6
 2003/09/02, 2:15,30.1,50,28.1,28.6
 2003/09/02, 2:30,30.2,50,28,28.6
 2003/09/02, 2:45,30,50,27.9,28.6
 2003/09/02, 3:00,30,50,27.8,28.6
 2003/09/02, 3:15,30,50,27.8,28.7
 2003/09/02, 3:30,30,51,27.7,28.7
 2003/09/02, 3:45,30,50,27.6,28.7
 2003/09/02, 4:00,29.9,51,27.6,28.7
 2003/09/02, 4:15,29.7,51,27.5,28.7
 2003/09/02, 4:30,29.8,51,27.4,28.7
 2003/09/02, 4:45,29.9,50,27.4,28.7
 2003/09/02, 5:00,30,50,27.4,28.8
 2003/09/02, 5:15,30,50,27.3,28.8
 2003/09/02, 5:30,30,50,27.3,28.8
 2003/09/02, 5:45,29.9,50,27.3,28.8
 2003/09/02, 6:00,30,50,27.2,28.5
 2003/09/02, 6:15,30,53,27.2,28.5
 2003/09/02, 6:30,30,51,27.3,28.5
 2003/09/02, 6:45,30.2,51,27.4,28.2
 2003/09/02, 7:00,30.4,51,27.5,28.2
 2003/09/02, 7:15,30.6,51,27.6,28.3
 2003/09/02, 7:30,30.7,52,27.9,28.3
 2003/09/02, 7:45,30.7,52,28,28.3
 2003/09/02, 8:00,30.7,52,28.2,28.3
 2003/09/02, 8:15,30.7,54,28.6,28.4
 2003/09/02, 8:30,30.9,54,28.8,28.4
 2003/09/02, 8:45,31.1,55,29.1,28.4
 2003/09/02, 9:00,31.2,54,29.5,28.4
 2003/09/02, 9:15,31.4,52,29.7,28.3
 2003/09/02, 9:30,31.6,52,30.1,28.4
 2003/09/02, 9:45,31.8,51,30.3,28.4
 2003/09/02,10:00,31.9,51,30.5,28.4
 2003/09/02,10:15,32,51,30.6,28.4
 2003/09/02,10:30,32.1,50,30.8,28.4
 2003/09/02,10:45,32.2,50,30.9,28.4
 2003/09/02,11:00,32.2,50,31.3,28.4
 2003/09/02,11:15,32.3,50,32,28.4
 2003/09/02,11:30,32.4,50,32.4,28.4
 2003/09/02,11:45,32.5,50,32.3,28.5
 2003/09/02,12:00,32.5,50,32,28.5
 2003/09/02,12:15,32.6,50,31.8,28.5
 2003/09/02,12:30,32.7,49,31.8,28.5
 2003/09/02,12:45,32.8,49,31.7,28.5
 2003/09/02,13:00,32.8,49,31.7,28.5
 2003/09/02,13:15,32.6,45,31.6,28.5
 2003/09/02,13:30,32,39,31.5,28.5
 2003/09/02,13:45,31.5,37,31.5,28.5
 2003/09/02,14:00,31.2,35,31.5,28.5
 2003/09/02,14:15,31,34,31.5,28.6
 2003/09/02,14:30,31,33,31.5,28.6
 2003/09/02,14:45,30.8,32,31.5,28.6
 2003/09/02,15:00,30.7,32,31.5,28.6
 2003/09/02,15:15,30.6,31,31.5,28.6
 2003/09/02,15:30,30.5,32,31.5,28.7
 2003/09/02,15:45,30.7,33,31.4,28.7
 2003/09/02,16:00,31.7,40,31.4,28.7
 2003/09/02,16:15,31.7,40,31.7,28.7
 2003/09/02,16:30,31.4,36,31.8,28.8
 2003/09/02,16:45,31.5,36,31.8,28.4
 2003/09/02,17:00,31.2,34,32,28.5
 2003/09/02,17:15,31.3,35,32.2,28.5
 2003/09/02,17:30,31.4,34,32.1,28.6
 2003/09/02,17:45,31.7,41,31.8,28.6
 2003/09/02,18:00,31.3,37,31.5,28.5
 2003/09/02,18:15,31.9,40,31.1,28.5
 2003/09/02,18:30,32,40,31,28.6
 2003/09/02,18:45,32.1,41,30.9,28.6
 2003/09/02,19:00,32.2,42,30.8,28.6
 2003/09/02,19:15,32.2,41,30.6,28.5
 2003/09/02,19:30,31.6,40,30.6,28.6
 2003/09/02,19:45,31.2,36,30.5,28.5
 2003/09/02,20:00,30.9,36,30.2,28.5
 2003/09/02,20:15,30.5,34,30.3,28.5
 2003/09/02,20:30,30.3,35,30,28.5
 2003/09/02,20:45,30,33,30,28.6
 2003/09/02,21:00,29.8,36,29.7,28.6
 2003/09/02,21:15,29.5,34,29.8,28.6
 2003/09/02,21:30,29.2,32,29.8,28.6
 2003/09/02,21:45,29.5,37,29.5,28.6
 2003/09/02,22:00,30.2,49,29.5,28.6
 2003/09/02,22:15,30.4,49,29.6,28.5
 2003/09/02,22:30,30.5,48,29.6,28.5
 2003/09/02,22:45,30.6,50,29.6,28.6
 2003/09/02,23:00,30.6,50,29.5,28.6
 2003/09/02,23:15,30.5,49,29.5,28.6
 2003/09/02,23:30,30.2,43,29.5,28.6
 2003/09/02,23:45,29.8,38,29.4,28.3
 2003/09/03, 0:00,30,39,29.3,28.5
 2003/09/03, 0:15,30.3,40,29.3,28.5
 2003/09/03, 0:30,30.5,41,29.2,28.3
 2003/09/03, 0:45,30.6,42,29.2,28.5
 2003/09/03, 1:00,30.6,42,29.1,28.5
 2003/09/03, 1:15,30.5,44,29,28.5
 2003/09/03, 1:30,30.5,44,29,28.5
 2003/09/03, 1:45,30.6,45,28.8,28.5
 2003/09/03, 2:00,30.6,46,28.8,28.5
 2003/09/03, 2:15,30.5,47,28.6,28.5
 2003/09/03, 2:30,30.6,48,28.6,28.6
 2003/09/03, 2:45,30.6,49,28.5,28.6
 2003/09/03, 3:00,30.5,49,28.4,28.6
 2003/09/03, 3:15,30.5,50,28.3,28.6
 2003/09/03, 3:30,30.6,50,28.4,28.6
 2003/09/03, 3:45,30.5,51,28.3,28.6
 2003/09/03, 4:00,30.5,51,28.3,28.6
 2003/09/03, 4:15,30.6,51,28.2,28.6
 2003/09/03, 4:30,30.5,51,28.2,28.6
 2003/09/03, 4:45,30.5,52,28.2,28.6
 2003/09/03, 5:00,30.5,52,28.2,28.7
 2003/09/03, 5:15,30.5,52,28.1,28.7
 2003/09/03, 5:30,30.4,52,28.1,28.7
 2003/09/03, 5:45,30.5,52,28.1,28.6
 2003/09/03, 6:00,30.7,57,28,28.6
 2003/09/03, 6:15,30.7,56,28,28.4
 2003/09/03, 6:30,30.9,55,28,28.5
 2003/09/03, 6:45,31,55,28,28.5
 2003/09/03, 7:00,31.1,54,28.1,28.5
 2003/09/03, 7:15,31.2,54,28.2,28.5
 2003/09/03, 7:30,31.3,54,28.3,28.5
 2003/09/03, 7:45,31.4,54,28.6,28.5
 2003/09/03, 8:00,31.5,54,28.8,28.5
 2003/09/03, 8:15,31.6,54,29,28.6
 2003/09/03, 8:30,31.7,54,29.2,28.6
 2003/09/03, 8:45,31.8,54,29.4,28.6
 2003/09/03, 9:00,31.8,54,29.7,28.6
 2003/09/03, 9:15,31.9,54,30,28.6
 2003/09/03, 9:30,31.8,54,30.3,28.6
 2003/09/03, 9:45,31.8,55,30.6,28.6
 2003/09/03,10:00,32,54,30.8,28.6
 2003/09/03,10:15,32.3,54,30.9,28.6
 2003/09/03,10:30,32.4,53,31.1,28.6
 2003/09/03,10:45,32.6,53,31.3,28.7
 2003/09/03,11:00,32.7,52,31.8,28.7
 2003/09/03,11:15,32.9,52,32.5,28.7
 2003/09/03,11:30,33,51,33,28.7
 2003/09/03,11:45,33.1,51,32.7,28.7
 2003/09/03,12:00,33.2,51,32.6,28.7
 2003/09/03,12:15,33.2,50,32.4,28.8
 2003/09/03,12:30,33.4,50,32.3,28.8
 2003/09/03,12:45,33.4,50,32.2,28.8
 2003/09/03,13:00,33.5,50,32.2,28.8
 2003/09/03,13:15,33.1,44,32.2,28.8
 2003/09/03,13:30,32.6,38,32.2,28.8
 2003/09/03,13:45,32.2,35,32.1,28.9
 2003/09/03,14:00,32,33,32.1,28.9
 2003/09/03,14:15,31.7,31,32.1,28.9
 2003/09/03,14:30,31.5,32,31.9,28.9
 2003/09/03,14:45,32.2,38,31.7,29
 2003/09/03,15:00,32.5,39,31.9,29
 2003/09/03,15:15,32.8,41,32,29
 2003/09/03,15:30,33,41,32.2,29
 2003/09/03,15:45,32.4,35,32.1,29.1
 2003/09/03,16:00,32,29,32.1,28.7
 2003/09/03,16:15,32.5,33,31.8,28.6
 2003/09/03,16:30,33,35,32.1,28.6
 2003/09/03,16:45,33.4,37,32.2,28.7
 2003/09/03,17:00,33.7,38,32.2,28.7
 2003/09/03,17:15,34,38,32.3,28.7
 2003/09/03,17:30,34.1,39,32.3,28.8
 2003/09/03,17:45,34.1,40,32.2,28.8
 2003/09/03,18:00,34,38,32.1,28.8
 2003/09/03,18:15,33,30,32,28.8
 2003/09/03,18:30,32.2,28,31.7,28.9
 2003/09/03,18:45,31.8,31,31.6,28.9
 2003/09/03,19:00,31.8,34,31,28.7
 2003/09/03,19:15,32.2,36,31,28.7
 2003/09/03,19:30,32.4,38,31,28.8
 2003/09/03,19:45,32.7,41,30.9,28.8
 2003/09/03,20:00,32.6,41,30.9,28.8
 2003/09/03,20:15,32.8,41,30.8,28.8
 2003/09/03,20:30,32,34,30.7,28.7
 2003/09/03,20:45,31.5,33,30.6,28.7
 2003/09/03,21:00,31,30,30.5,28.7
 2003/09/03,21:15,30.7,30,30.1,28.8
 2003/09/03,21:30,30.1,27,30.1,28.8
 2003/09/03,21:45,29.7,26,29.9,28.8
 2003/09/03,22:00,29.2,27,29.5,28.8
 2003/09/03,22:15,29,27,29.4,28.9
 2003/09/03,22:30,29.2,30,29.5,28.9
 2003/09/03,22:45,29.2,33,29.1,28.7
 2003/09/03,23:00,29.5,34,29.2,28.6
 2003/09/03,23:15,29.7,36,29.1,28.6
 2003/09/03,23:30,29.8,38,29.1,28.7
 2003/09/03,23:45,30,40,29,28.7
 2003/09/04, 0:00,30.2,42,28.9,28.7
 2003/09/04, 0:15,30.3,43,28.8,28.7
 2003/09/04, 0:30,30.4,44,28.8,28.7
 2003/09/04, 0:45,30.5,44,28.8,28.7
 2003/09/04, 1:00,30.5,44,28.7,28.7
 2003/09/04, 1:15,30.5,45,28.6,28.7
 2003/09/04, 1:30,30.5,46,28.6,28.7
 2003/09/04, 1:45,30.5,46,28.5,28.6
 2003/09/04, 2:00,30.5,47,28.5,28.6
 2003/09/04, 2:15,30.6,47,28.5,28.6
 2003/09/04, 2:30,30.6,47,28.4,28.6
 2003/09/04, 2:45,30.5,47,28.5,28.6
 2003/09/04, 3:00,30.5,47,28.4,28.6
 2003/09/04, 3:15,30.6,48,28.4,28.6
 2003/09/04, 3:30,30.5,48,28.3,28.6
 2003/09/04, 3:45,30.5,48,28.3,28.6
 2003/09/04, 4:00,30.6,48,28.3,28.6
 2003/09/04, 4:15,30.6,48,28.3,28.6
 2003/09/04, 4:30,30.5,49,28.2,28.6
 2003/09/04, 4:45,30.5,49,28.2,28.6
 2003/09/04, 5:00,30.6,49,28.1,28.7
 2003/09/04, 5:15,30.6,49,28.1,28.7
 2003/09/04, 5:30,30.5,49,28,28.7
 2003/09/04, 5:45,30.5,49,28,28.7
 2003/09/04, 6:00,30.5,49,27.9,28.6
 2003/09/04, 6:15,30.7,52,27.9,28.7
 2003/09/04, 6:30,30.8,52,27.8,28.7
 2003/09/04, 6:45,30.9,51,27.9,28.6
 2003/09/04, 7:00,30.9,52,28,28.6
 2003/09/04, 7:15,30.8,50,28.1,28.6
 2003/09/04, 7:30,30.9,50,28.2,28.6
 2003/09/04, 7:45,31,51,28.5,28.6
 2003/09/04, 8:00,31.1,50,28.8,28.6
 2003/09/04, 8:15,31.3,51,29.1,28.6
 2003/09/04, 8:30,31.6,53,29.2,28.6
 2003/09/04, 8:45,31.8,52,29.4,28.6
 2003/09/04, 9:00,31.7,49,29.7,28.6
 2003/09/04, 9:15,31.8,48,29.9,28.6
 2003/09/04, 9:30,32,48,30.1,28.6
 2003/09/04, 9:45,32.1,48,30.2,28.7
 2003/09/04,10:00,32.2,48,30.4,28.7
 2003/09/04,10:15,32.2,47,30.6,28.7
 2003/09/04,10:30,32.3,47,30.7,28.7
 2003/09/04,10:45,32.3,47,30.9,28.7
 2003/09/04,11:00,32.4,47,31.4,28.7
 2003/09/04,11:15,32.5,47,32,28.7
 2003/09/04,11:30,32.6,47,32.4,28.7
 2003/09/04,11:45,32.6,47,32.1,28.7
 2003/09/04,12:00,32.6,46,31.9,28.7
 2003/09/04,12:15,32.7,46,31.7,28.8
 2003/09/04,12:30,32.8,46,31.6,28.8
 2003/09/04,12:45,32.8,46,31.5,28.8
 2003/09/04,13:00,33,46,31.6,28.8
 2003/09/04,13:15,33,46,31.7,28.7
 2003/09/04,13:30,32.6,40,31.6,28.6
 2003/09/04,13:45,31.7,31,31.6,28.6
 2003/09/04,14:00,31.1,27,31.5,28.6
 2003/09/04,14:15,31,30,31.2,28.7
 2003/09/04,14:30,30.5,28,31.1,28.7
 2003/09/04,14:45,30.8,32,31,28.7
 2003/09/04,15:00,31.3,34,31,28.7
 2003/09/04,15:15,31.8,36,31.2,28.8
 2003/09/04,15:30,31.3,31,31,28.8
 2003/09/04,15:45,31,28,31.2,28.8
 2003/09/04,16:00,30.7,26,31.2,28.8
 2003/09/04,16:15,30.7,26,31.2,28.8
 2003/09/04,16:30,30.7,27,31.2,28.6
 2003/09/04,16:45,31.3,33,31.4,28.7
 2003/09/04,17:00,31.9,34,31.6,28.7
 2003/09/04,17:15,32.3,35,31.6,28.7
 2003/09/04,17:30,32.6,35,31.7,28.7
 2003/09/04,17:45,33,40,31.7,28.7
 2003/09/04,18:00,32.6,39,31.6,28.8
 2003/09/04,18:15,32.2,35,31.5,28.8
 2003/09/04,18:30,31.8,33,31.2,28.8
 2003/09/04,18:45,31.8,33,31.1,28.8
 2003/09/04,19:00,31.6,35,30.9,28.8
 2003/09/04,19:15,31.4,33,30.8,28.9
 2003/09/04,19:30,31,31,30.7,28.9
 2003/09/04,19:45,30.8,33,30,28.9
 2003/09/04,20:00,30.7,36,30.1,28.8
 2003/09/04,20:15,30.8,36,30.2,28.8
 2003/09/04,20:30,30.3,35,30,28.8
 2003/09/04,20:45,30.2,36,29.9,28.9
 2003/09/04,21:00,30,34,29.7,28.9
 2003/09/04,21:15,29.8,34,29.4,28.9
 2003/09/04,21:30,30,39,29.3,28.9
 2003/09/04,21:45,30.3,44,29.3,28.9
 2003/09/04,22:00,30.3,45,29.1,28.9
 2003/09/04,22:15,30.2,44,29,29
 2003/09/04,22:30,30.3,43,29,28.8
 2003/09/04,22:45,30.5,44,28.8,28.8
 2003/09/04,23:00,30.4,45,28.7,28.9
 2003/09/04,23:15,30.4,45,28.6,28.9
 2003/09/04,23:30,30.5,44,28.5,28.9
 2003/09/04,23:45,30.6,44,28.4,28.9
 2003/09/05, 0:00,30.7,44,28.3,28.9
 2003/09/05, 0:15,30.8,44,28.2,28.9
 2003/09/05, 0:30,30.8,44,28.1,28.9
 2003/09/05, 0:45,30.9,44,28,28.9
 2003/09/05, 1:00,30.9,45,27.9,28.9
 2003/09/05, 1:15,30.9,45,27.8,28.9
 2003/09/05, 1:30,30.9,45,27.7,28.9
 2003/09/05, 1:45,30.9,45,27.7,28.9
 2003/09/05, 2:00,30.9,45,27.6,28.9
 2003/09/05, 2:15,30.9,45,27.5,28.9
 2003/09/05, 2:30,30.7,45,27.5,28.9
 2003/09/05, 2:45,30.6,45,27.3,28.9
 2003/09/05, 3:00,30.6,46,27.3,28.9
 2003/09/05, 3:15,30.5,46,27.2,28.9
 2003/09/05, 3:30,30.4,46,27.1,28.9
 2003/09/05, 3:45,30.3,46,27,28.9
 2003/09/05, 4:00,30.4,46,27,28.9
 2003/09/05, 4:15,30.3,46,27,28.9
 2003/09/05, 4:30,30.2,47,27,28.9
 2003/09/05, 4:45,30.2,47,27,28.9
 2003/09/05, 5:00,30.2,47,26.9,28.9
 2003/09/05, 5:15,30,47,26.8,28.9
 2003/09/05, 5:30,30.1,47,26.7,28.9
 2003/09/05, 5:45,30.1,47,26.7,28.8
 2003/09/05, 6:00,29.9,48,26.9,28.7
 2003/09/05, 6:15,29.9,51,26.8,28.7
 2003/09/05, 6:30,29.9,49,26.8,28.7
 2003/09/05, 6:45,30,50,27,28.7
 2003/09/05, 7:00,30,48,27,28.7
 2003/09/05, 7:15,30.2,48,27,28.7
 2003/09/05, 7:30,30.1,48,27,28.7
 2003/09/05, 7:45,30,48,27.2,28.7
 2003/09/05, 8:00,30.1,51,27.3,28.6
 2003/09/05, 8:15,30.1,50,27.5,28.6
 2003/09/05, 8:30,30.3,52,27.7,28.6
 2003/09/05, 8:45,30.4,51,27.9,28.7
 2003/09/05, 9:00,30.5,50,28.2,28.6
 2003/09/05, 9:15,30.6,50,28.5,28.6
 2003/09/05, 9:30,30.5,49,28.7,28.6
 2003/09/05, 9:45,30.5,49,28.8,28.6
 2003/09/05,10:00,30.5,49,29,28.6
 2003/09/05,10:15,30.8,49,29.2,28.6
 2003/09/05,10:30,31,49,29.4,28.6
 2003/09/05,10:45,31.1,49,29.6,28.6
 2003/09/05,11:00,31.3,49,29.8,28.6
 2003/09/05,11:15,31.4,49,30.3,28.6
 2003/09/05,11:30,31.5,49,30.8,28.6
 2003/09/05,11:45,31.7,49,30.7,28.6
 2003/09/05,12:00,31.8,49,30.6,28.6
 2003/09/05,12:15,31.8,49,30.6,28.6
 2003/09/05,12:30,31.9,49,30.5,28.6
 2003/09/05,12:45,32.1,50,30.5,28.6
 2003/09/05,13:00,32.2,50,30.5,28.6
 2003/09/05,13:15,32.1,48,30.6,28.7
 2003/09/05,13:30,31.7,41,30.5,28.8
 2003/09/05,13:45,31.3,39,30.6,28.8
 2003/09/05,14:00,31.7,40,30.6,28.8
 2003/09/05,14:15,31.9,42,30.7,28.8
 2003/09/05,14:30,31.5,39,30.8,28.8
 2003/09/05,14:45,31.3,37,30.8,28.8
 2003/09/05,15:00,31.2,35,30.8,28.8
 2003/09/05,15:15,31.1,34,30.9,28.8
 2003/09/05,15:30,31.1,34,30.9,28.8
 2003/09/05,15:45,31.1,33,30.9,28.8
 2003/09/05,16:00,31.8,35,30.9,28.8
 2003/09/05,16:15,32.2,37,31,28.9
 2003/09/05,16:30,31.8,34,31.1,28.7
 2003/09/05,16:45,31.5,32,31.1,28.9
 2003/09/05,17:00,31.2,29,31.2,28.9
 2003/09/05,17:15,31,29,31.2,28.9
 2003/09/05,17:30,31.3,33,31.2,28.9
 2003/09/05,17:45,31.1,36,31.1,28.9
 2003/09/05,18:00,30.8,35,30.7,28.9
 2003/09/05,18:15,30.7,37,30.3,29
 2003/09/05,18:30,30.6,39,30.3,29
 2003/09/05,18:45,30.5,39,30.3,29
 2003/09/05,19:00,30.2,41,30.1,29
 2003/09/05,19:15,30.2,42,30,29
 2003/09/05,19:30,30.1,42,29.8,29
 2003/09/05,19:45,30.2,43,29.7,29
 2003/09/05,20:00,30.2,43,29.6,28.9
 2003/09/05,20:15,30,43,29.6,28.9
 2003/09/05,20:30,30,46,29.5,28.8
 2003/09/05,20:45,30,45,29.4,28.8
 2003/09/05,21:00,30,44,29.3,28.8
 2003/09/05,21:15,29.9,46,29.2,28.8
 2003/09/05,21:30,29.8,45,29.2,28.8
 2003/09/05,21:45,29.7,44,29.2,28.9
 2003/09/05,22:00,29.7,45,29.1,28.9
 2003/09/05,22:15,29.6,45,29.1,28.9
 2003/09/05,22:30,29.7,46,28.9,28.9
 2003/09/05,22:45,29.7,48,28.9,28.9
 2003/09/05,23:00,29.6,49,28.9,28.9
 2003/09/05,23:15,29.7,48,28.8,28.9
 2003/09/05,23:30,29.3,43,28.5,28.9
 2003/09/05,23:45,28.7,38,28.7,28.9
 2003/09/06, 0:00,28.9,38,28.7,28.9
 2003/09/06, 0:15,29.1,40,28.6,28.9
 2003/09/06, 0:30,29.1,46,28.6,28.8
 2003/09/06, 0:45,29.3,48,28.5,28.8
 2003/09/06, 1:00,29.3,49,28.5,28.8
 2003/09/06, 1:15,29.3,50,28.5,28.8
 2003/09/06, 1:30,29.6,51,28.5,28.8
 2003/09/06, 1:45,29.4,51,28.5,28.8
 2003/09/06, 2:00,29.5,52,28.5,28.8
 2003/09/06, 2:15,29.6,53,28.5,28.8
 2003/09/06, 2:30,29.5,53,28.5,28.8
 2003/09/06, 2:45,29.6,53,28.5,28.8
 2003/09/06, 3:00,29.6,53,28.3,28.8
 2003/09/06, 3:15,29.6,53,28.3,28.8
 2003/09/06, 3:30,29.6,53,28.3,28.8
 2003/09/06, 3:45,29.7,54,28.2,28.8
 2003/09/06, 4:00,29.6,54,28.2,28.8
 2003/09/06, 4:15,29.7,54,28.2,28.8
 2003/09/06, 4:30,29.8,54,28.2,28.8
 2003/09/06, 4:45,29.6,54,28.2,28.8
 2003/09/06, 5:00,29.7,54,28.2,28.8
 2003/09/06, 5:15,29.8,54,28.2,28.8
 2003/09/06, 5:30,29.7,55,28.2,28.8
 2003/09/06, 5:45,29.7,55,28.3,28.8
 2003/09/06, 6:00,29.9,59,28.3,28.8
 2003/09/06, 6:15,29.9,57,28.3,28.8
 2003/09/06, 6:30,29.8,57,28.4,28.8
 2003/09/06, 6:45,29.8,57,28.4,28.8
 2003/09/06, 7:00,29.9,57,28.5,28.8
 2003/09/06, 7:15,30.1,56,28.6,28.9
 2003/09/06, 7:30,30.5,58,28.6,28.9
 2003/09/06, 7:45,30.6,57,28.8,28.9
 2003/09/06, 8:00,30.8,56,28.9,28.9
 2003/09/06, 8:15,30.9,55,29.1,28.8
 2003/09/06, 8:30,31.1,55,29.3,28.9
 2003/09/06, 8:45,31.2,55,29.7,28.9
 2003/09/06, 9:00,31.5,55,29.8,28.9
 2003/09/06, 9:15,31.7,54,29.7,28.8
 2003/09/06, 9:30,31.7,52,29.9,28.8
 2003/09/06, 9:45,31.9,52,30,28.8
 2003/09/06,10:00,32.3,53,30.2,28.8
 2003/09/06,10:15,32.4,50,30.2,28.8
 2003/09/06,10:30,32.4,49,30.6,28.8
 2003/09/06,10:45,32.5,49,30.6,28.8
 2003/09/06,11:00,32.6,49,30.8,28.8
 2003/09/06,11:15,32.6,49,31.1,28.8
 2003/09/06,11:30,32.2,42,31.1,28.9
 2003/09/06,11:45,31.8,38,31.1,28.9
 2003/09/06,12:00,31.5,38,31.1,28.9
 2003/09/06,12:15,31,36,31.1,28.9
 2003/09/06,12:30,30.9,34,31,28.9
 2003/09/06,12:45,30.9,37,30.8,28.9
 2003/09/06,13:00,30.7,34,30.8,28.8
 2003/09/06,13:15,30.6,32,30.7,28.8
 2003/09/06,13:30,30.4,31,30.6,28.8
 2003/09/06,13:45,30.9,32,30.6,28.8
 2003/09/06,14:00,31.2,34,30.6,28.8
 2003/09/06,14:15,31.6,35,30.6,28.8
 2003/09/06,14:30,31.8,36,30.7,28.8
 2003/09/06,14:45,32,37,30.7,28.9
 2003/09/06,15:00,32.3,37,30.8,28.9
 2003/09/06,15:15,32.5,38,30.9,28.9
 2003/09/06,15:30,32.6,38,30.9,28.9
 2003/09/06,15:45,32.8,39,30.9,28.9
 2003/09/06,16:00,32.9,39,31,29
 2003/09/06,16:15,33,40,31,29
 2003/09/06,16:30,32.7,38,30.8,28.9
 2003/09/06,16:45,32,32,30.9,28.9
 2003/09/06,17:00,32.1,32,30.8,28.9
 2003/09/06,17:15,32.3,33,30.8,28.9
 2003/09/06,17:30,32.4,35,30.8,29
 2003/09/06,17:45,32.5,39,30.7,28.9
 2003/09/06,18:00,32,35,30.6,28.9
 2003/09/06,18:15,31.7,35,30.6,28.9
 2003/09/06,18:30,31.6,38,30.6,28.9
 2003/09/06,18:45,31.5,39,30.5,28.9
 2003/09/06,19:00,31.3,40,30.5,29
 2003/09/06,19:15,31,40,30.4,29
 2003/09/06,19:30,30.8,40,30.3,29.1
 2003/09/06,19:45,30.7,40,30.2,29
 2003/09/06,20:00,30.7,39,29.7,29
 2003/09/06,20:15,30.5,37,29.9,29
 2003/09/06,20:30,30.2,37,29.9,29
 2003/09/06,20:45,30.4,37,29.8,29.1
 2003/09/06,21:00,30.4,37,29.7,28.9
 2003/09/06,21:15,30.3,36,29.6,29
 2003/09/06,21:30,30,38,29.4,29
 2003/09/06,21:45,29.9,37,29,29
 2003/09/06,22:00,30.2,37,29.2,29
 2003/09/06,22:15,30.5,38,29.4,29
 2003/09/06,22:30,30.7,38,29.3,29
 2003/09/06,22:45,30.8,39,29.3,29
 2003/09/06,23:00,30.7,40,29.3,29
 2003/09/06,23:15,30.5,39,29.2,29
 2003/09/06,23:30,30.1,36,29.2,29
 2003/09/06,23:45,29.8,34,29.2,29
 2003/09/07, 0:00,29.8,33,29,29
 2003/09/07, 0:15,30,36,28.9,28.9
 2003/09/07, 0:30,30.2,38,28.8,29
 2003/09/07, 0:45,30.1,39,28.8,29
 2003/09/07, 1:00,30.2,41,28.6,29
 2003/09/07, 1:15,30.3,42,28.6,29
 2003/09/07, 1:30,30.3,42,28.5,29
 2003/09/07, 1:45,30.4,43,28.5,28.9
 2003/09/07, 2:00,30.3,44,28.5,28.9
 2003/09/07, 2:15,30.4,45,28.4,28.9
 2003/09/07, 2:30,30.3,45,28.3,28.9
 2003/09/07, 2:45,30.4,45,28.2,28.9
 2003/09/07, 3:00,30.4,46,28.2,28.9
 2003/09/07, 3:15,30.4,46,28.2,29
 2003/09/07, 3:30,30.4,46,28.2,29
 2003/09/07, 3:45,30.3,47,28.1,29
 2003/09/07, 4:00,30.4,47,28,29
 2003/09/07, 4:15,30.4,47,27.9,28.9
 2003/09/07, 4:30,30.4,47,27.9,29
 2003/09/07, 4:45,30.2,47,27.8,29
 2003/09/07, 5:00,30.1,47,27.8,28.9
 2003/09/07, 5:15,30.2,47,27.8,29
 2003/09/07, 5:30,30.3,47,27.8,28.9
 2003/09/07, 5:45,30.4,47,27.6,28.9
 2003/09/07, 6:00,30.4,47,27.6,28.8
 2003/09/07, 6:15,30.5,48,27.6,28.8
 2003/09/07, 6:30,30.4,48,27.6,28.8
 2003/09/07, 6:45,30.3,48,27.6,28.8
 2003/09/07, 7:00,30.2,48,27.9,28.8
 2003/09/07, 7:15,30.2,48,27.8,28.8
 2003/09/07, 7:30,30.4,48,28,28.8
 2003/09/07, 7:45,30.1,48,28.2,28.8
 2003/09/07, 8:00,30,48,28.2,28.8
 2003/09/07, 8:15,30,48,28.2,28.8
 2003/09/07, 8:30,30,47,28.3,28.8
 2003/09/07, 8:45,30.1,47,28.5,28.8
 2003/09/07, 9:00,30.3,48,29,28.9
 2003/09/07, 9:15,30.5,47,29.1,28.9
 2003/09/07, 9:30,30.7,48,28.9,28.8
 2003/09/07, 9:45,30.8,49,29.1,28.9
 2003/09/07,10:00,30.9,48,29.2,28.9
 2003/09/07,10:15,31.1,48,29.4,28.9
 2003/09/07,10:30,31.1,47,29.5,28.9
 2003/09/07,10:45,31.2,46,29.7,28.9
 2003/09/07,11:00,31.3,45,29.9,28.9
 2003/09/07,11:15,31.4,45,30.3,28.9
 2003/09/07,11:30,31.5,45,30.3,28.9
 2003/09/07,11:45,31.6,45,30.3,28.9
 2003/09/07,12:00,31.7,44,30.3,28.9
 2003/09/07,12:15,31.7,44,30.3,28.9
 2003/09/07,12:30,31.9,44,30.4,28.9
 2003/09/07,12:45,31.9,44,30.4,28.9
 2003/09/07,13:00,32.1,44,30.4,28.9
 2003/09/07,13:15,32.1,43,30.5,28.9
 2003/09/07,13:30,32.2,43,30.5,28.9
 2003/09/07,13:45,32.2,42,30.5,28.9
 2003/09/07,14:00,32.1,42,30.6,28.9
 2003/09/07,14:15,32.2,43,30.6,28.9
 2003/09/07,14:30,32.4,43,30.7,28.9
 2003/09/07,14:45,32.6,42,30.8,28.9
 2003/09/07,15:00,32.8,41,30.9,28.9
 2003/09/07,15:15,33,41,30.9,28.9
 2003/09/07,15:30,33.3,41,31.1,28.9
 2003/09/07,15:45,33.4,41,31.1,29
 2003/09/07,16:00,33.6,40,31.3,29
 2003/09/07,16:15,33.6,40,31.3,29
 2003/09/07,16:30,33.7,40,31.3,29
 2003/09/07,16:45,33.7,40,31.4,29
 2003/09/07,17:00,33.7,40,31.4,29
 2003/09/07,17:15,33.8,40,31.4,29
 2003/09/07,17:30,33.8,40,31.4,29
 2003/09/07,17:45,33.8,40,31.4,29.1
 2003/09/07,18:00,33.8,41,31.4,29.1
 2003/09/07,18:15,33.7,41,31.3,29.1
 2003/09/07,18:30,33.3,38,31.2,29.1
 2003/09/07,18:45,32.8,36,30.8,29.1
 2003/09/07,19:00,32.4,35,30.6,29.1
 2003/09/07,19:15,32,35,30.6,29.2
 2003/09/07,19:30,31.7,34,30.4,29.2
 2003/09/07,19:45,31.5,36,30.3,29.2
 2003/09/07,20:00,31.2,34,30.1,29.2
 2003/09/07,20:15,30.9,35,30,29.2